This demonstration page uses our WeatherBlox Daily Observations layout. Learn more.

Left ArrowRight Arrow

Hourly Observations for February 25, 2021

Temp ( °F °C ) Dew Point ( °F °C ) Humidity (%) Winds ( mph kmh ) Pressure ( in mb ) Visibility ( mi km ) Precip ( " mm )
12:54 am 00:54 Clear 25 -3.9 21 -6.1 85 85 Calm 30.42 1030 10 16.0934 0 0
1:54 am 01:54 Clear 23 -5 19 -7.2 85 85 Calm 30.43 1030 10 16.0934 0 0
2:54 am 02:54 Clear 25 -3.9 20 -6.7 81 81 Calm 30.43 1031 10 16.0934 0 0
3:54 am 03:54 Clear 24 -4.4 21 -6.1 88 88 Calm 30.42 1030 10 16.0934 0 0
4:54 am 04:54 Clear 22 -5.6 18 -7.8 85 85 WSW 3 6 30.42 1030 10 16.0934 0 0
5:54 am 05:54 Clear 24 -4.4 20 -6.7 84 84 Calm 30.43 1030 10 16.0934 0 0
6:54 am 06:54 Clear 24 -4.4 20 -6.7 84 84 Calm 30.43 1031 10 16.0934 0 0
7:54 am 07:54 Sunny 23 -5 20 -6.7 88 88 Calm 30.45 1031 9 14.48406 0 0
8:54 am 08:54 Sunny 30 -1.1 25 -3.9 82 82 Calm 30.46 1032 10 16.0934 0 0
9:54 am 09:54 Sunny 34 1.1 27 -2.8 76 76 N 3 6 30.47 1032 10 16.0934 0 0
10:54 am 10:54 Sunny 38 3.3 28 -2.2 68 68 Calm 30.48 1032 10 16.0934 0 0
11:54 am 11:54 Sunny 41 5 28 -2.2 60 60 Calm 30.46 1032 10 16.0934 0 0
12:54 pm 12:54 Sunny 40 4.4 27 -2.8 60 60 WSW 5 7 30.43 1030 10 16.0934 0 0
1:54 pm 13:54 Sunny 41 5 27 -2.8 57 57 SW 3 6 30.39 1029 10 16.0934 0 0
2:54 pm 14:54 Sunny 42 5.6 26 -3.3 53 53 SSW 5 7 30.36 1028 10 16.0934 0 0
3:54 pm 15:54 Sunny 42 5.6 27 -2.8 55 55 SSW 6 9 30.35 1028 10 16.0934 0 0
4:54 pm 16:54 Sunny 41 5 26 -3.3 55 55 SSW 6 9 30.32 1027 10 16.0934 0 0
5:54 pm 17:54 Sunny 36 2.2 27 -2.8 70 70 S 5 7 30.31 1026 10 16.0934 0 0
6:54 pm 18:54 Clear 36 2.2 26 -3.3 67 67 S 3 6 30.29 1026 10 16.0934 0 0
7:54 pm 19:54 Clear 33 0.6 24 -4.4 70 70 SSE 6 9 30.27 1025 10 16.0934 0 0
8:54 pm 20:54 Clear 31 -0.6 24 -4.4 76 76 S 5 7 30.25 1024 10 16.0934 0 0
9:54 pm 21:54 Clear 30 -1.1 23 -5 75 75 S 5 7 30.24 1024 10 16.0934 0 0
10:54 pm 22:54 Clear 28 -2.2 22 -5.6 78 78 SSE 5 7 30.22 1023 10 16.0934 0 0
11:54 pm 23:54 Clear 30 -1.1 24 -4.4 79 79 Calm 30.2 1023 10 16.0934 0 0

Powered by AerisWeather